Weather History for Birmingham, United Kingdom

Change the Weather History Date:

Friday, March 21, 2014

  Actual Average Record
Temperature  
Mean Temperature 44 °F -  
Max Temperature 51 °F 52 °F 59 °F (2005)
Min Temperature 37 °F 37 °F 28 °F (2009)
Degree Days  
Heating Degree Days 21    
Moisture  
Dew Point 37 °F    
Average Humidity 76    
Maximum Humidity 87    
Minimum Humidity 54    
Precipitation  
Precipitation 0.00 in 0.07 in - ()
Sea Level Pressure  
Sea Level Pressure 29.59 in    
Wind  
Wind Speed 8 mph ()    
Max Wind Speed 15 mph    
Max Gust Speed 30 mph    
Visibility 6.2 miles    
Events Rain    
Averages and records for this station are not official NWS values.
T = Trace of Precipitation, MM = Missing Value Source: Averaged Metar Reports

Daily Weather History Graph

Daily Weather History Graph

Search for Another Location

Airport:

Trip Planner

Search our weather history database for the weather conditions in past years. The results will help you decide how hot, cold, wet, or windy it might be!

Date:

Astronomy

Mar. 21, 2014 Rise Set
Actual Time 6:07 AM GMT 6:21 PM GMT
Civil Twilight 5:33 AM GMT 6:55 PM GMT
Nautical Twilight 4:53 AM GMT 7:36 PM GMT
Astronomical Twilight 4:11 AM GMT 8:18 PM GMT
Moon No Moon Rise 8:13 AM GMT (3/21)
Length of Visible Light 13h 22m
Length of Day
12h 14m
Waning Gibbous, 77% of the Moon is Illuminated
Mar 21
Waning Gibbous
Mar 24
Last Quarter
Mar 30
New
Apr 7
First Quarter
Apr 15
Full

Hourly Weather History & Observations

Time (GMT) Temp. Windchill Dew Point Humidity Pressure Visibility Wind Dir Wind Speed Gust Speed Precip Events Conditions
12:20 AM 44.6 °F 40.7 °F 37.4 °F 76% 29.62 in 6.2 mi SW 6.9 mph - N/A   Mostly Cloudy
12:50 AM 42.8 °F 38.6 °F 37.4 °F 81% 29.62 in 6.2 mi WSW 6.9 mph - N/A   Partly Cloudy
1:20 AM 42.8 °F 39.3 °F 37.4 °F 81% 29.62 in 6.2 mi West 5.8 mph - N/A   Unknown
1:50 AM 41.0 °F 36.4 °F 37.4 °F 87% 29.62 in 6.2 mi WSW 6.9 mph - N/A   Unknown
2:20 AM 41.0 °F 37.1 °F 35.6 °F 81% 29.62 in 6.2 mi WSW 5.8 mph - N/A   Unknown
2:50 AM 41.0 °F 37.1 °F 35.6 °F 81% 29.62 in 6.2 mi WSW 5.8 mph - N/A   Unknown
3:20 AM 39.2 °F 35.9 °F 35.6 °F 87% 29.65 in 6.2 mi SSW 4.6 mph - N/A   Unknown
3:50 AM 39.2 °F 37.0 °F 35.6 °F 87% 29.62 in 6.2 mi Variable 3.5 mph - N/A   Unknown
4:20 AM 39.2 °F 37.0 °F 35.6 °F 87% 29.62 in - Variable 3.5 mph - N/A   Clear
4:50 AM 39.2 °F 34.2 °F 35.6 °F 87% 29.62 in - SW 6.9 mph - N/A   Clear
5:20 AM 39.2 °F 34.2 °F 35.6 °F 87% 29.65 in - SW 6.9 mph - N/A   Clear
5:50 AM 39.2 °F 35.0 °F 35.6 °F 87% 29.65 in 6.2 mi SW 5.8 mph - N/A   Unknown
6:20 AM 37.4 °F 33.8 °F 33.8 °F 87% 29.65 in - SW 4.6 mph - N/A   Clear
6:50 AM 37.4 °F 32.1 °F 33.8 °F 87% 29.65 in - SW 6.9 mph - N/A   Clear
7:20 AM 39.2 °F 34.2 °F 35.6 °F 87% 29.65 in - SW 6.9 mph - N/A   Clear
7:50 AM 41.0 °F 36.4 °F 35.6 °F 81% 29.65 in - WSW 6.9 mph - N/A   Clear
8:20 AM 42.8 °F 38.0 °F 35.6 °F 76% 29.68 in - SW 8.1 mph - N/A   Clear
8:50 AM 44.6 °F 39.2 °F 35.6 °F 71% 29.68 in - SW 10.4 mph - N/A   Clear
9:20 AM 46.4 °F 41.1 °F 37.4 °F 71% 29.68 in 6.2 mi SW 11.5 mph - N/A   Partly Cloudy
9:50 AM 46.4 °F 41.5 °F 37.4 °F 71% 29.68 in 6.2 mi SW 10.4 mph - N/A   Scattered Clouds
10:20 AM 46.4 °F 41.1 °F 35.6 °F 66% 29.68 in 6.2 mi SW 11.5 mph - N/A   Scattered Clouds
10:50 AM 48.2 °F - 37.4 °F 66% 29.68 in 6.2 mi SW 11.5 mph - N/A   Mostly Cloudy
11:20 AM 48.2 °F - 37.4 °F 66% 29.65 in 6.2 mi SW 12.7 mph - N/A   Mostly Cloudy
11:50 AM 50.0 °F - 35.6 °F 58% 29.65 in 6.2 mi SW 13.8 mph - N/A   Mostly Cloudy
12:20 PM 46.4 °F 41.5 °F 37.4 °F 71% 29.68 in 6.2 mi West 10.4 mph - N/A Rain Light Rain
12:50 PM 50.0 °F - 37.4 °F 62% 29.65 in 6.2 mi SSW 9.2 mph - N/A   Mostly Cloudy
1:20 PM 50.0 °F - 37.4 °F 62% 29.65 in 6.2 mi SSW 11.5 mph - N/A   Scattered Clouds
1:50 PM 51.8 °F - 35.6 °F 54% 29.65 in 6.2 mi SSW 15.0 mph - N/A   Scattered Clouds
2:20 PM 51.8 °F - 35.6 °F 54% 29.62 in 6.2 mi SSW 13.8 mph - N/A   Partly Cloudy
2:50 PM 50.0 °F - 35.6 °F 58% 29.62 in 6.2 mi SW 15.0 mph 29.9 mph N/A Rain Light Rain Showers
3:20 PM 46.4 °F 41.9 °F 41.0 °F 81% 29.62 in 6.2 mi SW 9.2 mph - N/A   Scattered Clouds
3:50 PM 48.2 °F - 37.4 °F 66% 29.59 in 6.2 mi SSW 10.4 mph - N/A   Partly Cloudy
4:20 PM 48.2 °F - 37.4 °F 66% 29.59 in 6.2 mi South 12.7 mph - N/A   Scattered Clouds
4:50 PM 46.4 °F 41.5 °F 37.4 °F 71% 29.59 in 6.2 mi South 10.4 mph - N/A   Partly Cloudy
5:20 PM 46.4 °F 42.4 °F 39.2 °F 76% 29.56 in 6.2 mi South 8.1 mph - N/A   Partly Cloudy
5:50 PM 46.4 °F 41.9 °F 35.6 °F 66% 29.56 in 6.2 mi South 9.2 mph - N/A   Partly Cloudy
6:20 PM 46.4 °F 41.9 °F 35.6 °F 66% 29.53 in 6.2 mi SSW 9.2 mph - N/A   Partly Cloudy
6:50 PM 44.6 °F 40.7 °F 37.4 °F 76% 29.53 in 6.2 mi South 6.9 mph - N/A   Scattered Clouds
7:20 PM 44.6 °F 38.8 °F 37.4 °F 76% 29.50 in 6.2 mi SSE 11.5 mph - N/A   Mostly Cloudy
7:50 PM 44.6 °F 39.2 °F 37.4 °F 76% 29.50 in 6.2 mi South 10.4 mph - N/A   Scattered Clouds
8:20 PM 44.6 °F 38.8 °F 37.4 °F 76% 29.47 in 6.2 mi South 11.5 mph - N/A   Scattered Clouds
8:50 PM 44.6 °F 38.4 °F 37.4 °F 76% 29.47 in 6.2 mi South 12.7 mph - N/A   Scattered Clouds
9:20 PM 42.8 °F 35.8 °F 37.4 °F 81% 29.44 in 6.2 mi South 13.8 mph - N/A   Mostly Cloudy
9:50 PM 42.8 °F 36.2 °F 37.4 °F 81% 29.42 in 6.2 mi South 12.7 mph - N/A   Scattered Clouds
10:20 PM 42.8 °F 36.2 °F 37.4 °F 81% 29.42 in 6.2 mi South 12.7 mph - N/A Rain Light Rain
10:50 PM 42.8 °F 37.0 °F 39.2 °F 87% 29.42 in 5.6 mi SW 10.4 mph 21.9 mph N/A Rain Light Rain
11:20 PM 41.0 °F 37.1 °F 37.4 °F 87% 29.42 in 6.2 mi South 5.8 mph - N/A   Mostly Cloudy
11:50 PM 41.0 °F 35.8 °F 37.4 °F 87% 29.42 in 6.2 mi SSW 8.1 mph - N/A   Mostly Cloudy